PEGASUS R/B, 44629

Orbit data source: Space-Track

PEGASUS R/B, 44629 is space debris in LEO originally from a launch on Fri, 11 Oct 2019 UTC launched from the Pegasus Launch, Eastern Range Air Space (ERAS). Debris objects in space refer to the collection of defunct objects orbiting the Earth. Examples of debris include non-operational satellites, rocket bodies, and fragments generated from explosions, collisions, or faulty payload assembly.

Not visible in the next 10 days
Identifier
44629, 2019-068B
Orbit
LEO
Country
Flag of USUS
Related business
Manufacturer
NGIS FSG
Mission
Spacecraft
Bus & Motor
ORION 38, Unknown motor
Mass
202 kg wet, 202 kg dry
Launch date (UTC)
2019-10-11 (7 years ago)
Launch vehicle
Unknown
Launch site
Pegasus Launch, Eastern Range Air Space (ERAS)
Object type
Payload
Rocket body
Debris
Shape & HBR
Cyl + 1 Nozzle, 0.7 m
Radar Cross Section
1.381 m², Large (>1 m²)

Expand to show TLE details & history
Last TLE update: 3 days ago

TLE from 3 days ago
0 PEGASUS R/B
1 44629U 19068B   26170.85193129  .00002255  00000-0  13829-3 0  9993
2 44629  26.9930  10.0135 0011337 225.6284 134.3348 15.05227209366408
Epoch: 2026-06-19T20:26Z
TLE epoch observation values (Epoch: 2026-06-19T20:26:46.863Z)
Latitude
-0.00004°
Longitude
155.24319°
Altitude
554.439 km
Speed
7.584 km/s
True Right ascension
00h 40m 03s
True Declination
0° 00' 00"
Sunlit
Object was in daylight at epoch
Visualization orbit readout
Latitude
Unknown
Longitude
Unknown
Altitude
Unknown
Speed
Unknown
Apparent Right ascension
Unknown
Apparent Declination
Unknown
Sunlit
N/A
Visualization observer readout
Local Sidereal Time
21:27:23
Azimuth
Unknown
Elevation
Unknown
Doppler factor
Unknown
Orbital elements
Apogee altitude
563.067 km
Perigee altitude
547.346 km
Semi-major axis
6,933.344 km
Eccentricity
0.00113
Inclination
26.993°
RAAN
10.0135°
Arg. of periapsis
225.6284°
True anomaly
134.42763°
Mean anomaly
134.3348°
Eccentric anomaly
134.38122°
Mean motion
3.75949 °/min
Orbital period
95.76 mins
BSTAR
0.00013829
Loading maneuver chart data...
Computing Atmospheric mass density...
Loading historical data...
Loading historical data...
Loading historical data...
Loading historical data...
Loading historical data...
Loading historical data...
Loading historical data...
Other satellites on launch #68 in the year 2019 (2019-10-11 UTC)

Documentation

Showing up to 5 results
|